    Orbital elements:
    2010 BC                                                  Earth MOID = 0.0131 AU
    Epoch 2010 Jan. 4.0 TT = JDT 2455200.5                  MPC
    M 338.31618              (2000.0)            P               Q
    n   0.36413653     Peri.   60.16224     -0.98929178     +0.03090866
    a   1.9421967      Node   121.26716     -0.07467540     -0.94690158
    e   0.5720260      Incl.    9.60641     +0.12540077     -0.32003447
    P   2.71           H   22.2           G   0.15           U   7
    Residuals in seconds of arc
    100116 703  0.3-  0.4+    100116 926  0.7+  0.1+    100117 844  0.5-  0.2-
    100116 703  0.4+  0.0     100116 926  0.6+  0.0     100117 844  0.2-  0.1-
    100116 703  0.6-  0.1+    100116 H10  0.2-  0.0     100117 844  0.1+  0.2-
    100116 703  0.1-  0.2+    100116 H10  0.3-  0.6-    100117 844  0.4-  0.6-
    100116 703  0.9-  0.5+    100116 H10  0.6+  0.7+    100117 844  0.3-  0.2+
    100116 703  0.3+  0.3-    100116 900  0.0   0.0     100117 291  0.3-  0.2+
    100116 H01  0.1-  0.0     100116 900  0.3+  0.2-    100117 291  0.4-  0.1+
    100116 854  0.1-  0.2-    100116 D90  0.2+  0.2+    100117 291  0.0   0.8+
    100116 H01  0.0   0.0     100116 D90  0.6+  0.0     100117 926  0.1-  0.0
    100116 703  0.0   0.0     100116 D90  0.4+  0.1+    100117 926  0.0   0.0
    100116 703  0.2-  1.1-    100116 D90  0.4+  0.1+    100117 926  0.1+  0.1-
    100116 703  1.3-  0.6-    100116 595  0.2+  0.2+    100117 H01  0.1-  0.1-
    100116 703  0.4+  0.3+    100116 595  0.4+  0.0     100117 H01  0.0   0.2-
    100116 854  0.6+  0.2+    100116 J41  1.0-  0.5-    100117 H01  0.1-  0.2-
    100116 854  0.3+  0.3+    100116 J41  0.9-  0.2-    100117 474  1.6+  0.5+
    100116 H01  0.0   0.0     100116 J41  0.9-  0.7-    100117 474  0.2+  0.9-
    100116 703  0.6+  0.1-    100116 J16  0.1+  0.0     100117 474  1.3+  0.2+
    100116 703  0.0   0.2+    100116 J16  0.5+  0.3+    100117 474  1.3+  0.2+
    100116 703  0.9-  0.1-    100116 J16  0.3-  0.5+    100117 H01  0.4-  0.1-
    100116 703  0.3-  0.3-    100116 J16  0.2+  0.0     100117 H06  0.2-  0.1-
    100116 H01  0.0   0.0     100117 J95  0.1+  0.1+    100117 H06  0.5-  0.2-
    100116 703  0.3-  0.0     100117 J95  0.1+  0.2-    100117 900  0.3-  0.4-
    100116 H01  0.0   0.1+    100117 J95  0.1+  0.1-    100117 900  0.3-  0.4-
    100116 926  0.4+  0.3+    100117 J95  0.1+  0.1-
    
    Ephemeris:
    2010 BC                  a,e,i = 1.94, 0.57, 10                  q = 0.8312
    Date    TT    R. A. (2000) Decl.     Delta      r     Elong.  Phase     V
    2010 01 14    07 56.63   +06 03.5    0.0911   1.072   164.3    14.4    18.0
    2010 01 16    08 06.80   +07 19.6    0.0741   1.056   165.7    13.3    17.4
    2010 01 18    08 22.91   +09 21.5    0.0577   1.040   167.3    12.0    16.8
    2010 01 20    08 51.83   +12 53.1    0.0420   1.025   167.1    12.4    16.1
    2010 01 22    09 54.48   +19 31.7    0.0281   1.010   156.8    22.6    15.5
    2010 01 24    12 31.00   +28 20.8    0.0198   0.995   123.4    55.6    15.7
    2010 01 26    15 47.73   +23 14.1    0.0240   0.981    81.2    97.4    17.6
    2010 01 28    17 16.07   +15 03.4    0.0364   0.967    60.5   117.6    19.6
    2010 01 30    17 53.94   +10 33.4    0.0515   0.954    51.7   125.9    21.0
    2010 02 01    18 14.09   +07 58.1    0.0675   0.941    47.6   129.4    21.9
    2010 02 03    18 26.64   +06 18.1    0.0839   0.929    45.5   130.8    22.5
    
    Timothy B. Spahr             (C) Copyright 2010 MPC           M.P.E.C. 2010-B06
    

    Read MPEC 2010-B05 Read MPEC 2010-B07


    MPEC number:

    Enter an MPEC number in one of the following forms:

    • 1997-B01 (the full form)
    • J97B01 (the packed version of the full form)
    • B01 (the abbreviated form)